Location: Chacón
(10.5789°N, 66.9317°W)
Time: 03:33:09
(UTC+00:00)

Cosmos 962 Rocket - Pass Details

Date: 13 October 2025
Orbit: 950 x 998 km, 82.9° (Epoch: 17 November)

Event Time Altitude Azimuth Distance (km) Brightness Sun altitude
Rises 09:25:12 0° 350° (N) 3,695 7.4 -13.3°
Reaches altitude 10° 09:27:46 10° 347° (NNW) 2,742 6.7 -12.7°
Maximum altitude 09:33:57 62° 268° (W) 1,091 4.5 -11.2°
Drops below altitude 10° 09:40:04 10° 188° (S) 2,710 6.8 -9.7°
Sets 09:42:36 0° 185° (S) 3,650 7.5 -9.1°
